White Mountain, AK

1:25 PM AKST on February 26, 2017 (GMT -0900)
Golovin

Weather History for PAGL - March, 2014

Change the Weather History Date:

Sunday, March 23, 2014

  Actual Average Record
Temperature  
Mean Temperature 29 °F -  
Max Temperature 37 °F - - ()
Min Temperature 21 °F - - ()
Degree Days  
Heating Degree Days 36    
Moisture  
Dew Point 3 °F    
Average Humidity 31    
Maximum Humidity 43    
Minimum Humidity 22    
Precipitation  
Precipitation 0.00 in - - ()
Sea Level Pressure  
Sea Level Pressure 30.44 in    
Wind  
Wind Speed 8 mph (East)    
Max Wind Speed 18 mph    
Max Gust Speed 31 mph    
Visibility 10 miles    
Events      
Averages and records for this station are not official NWS values.
T = Trace of Precipitation, MM = Missing Value Source: NWS Daily Summary

Daily Weather History Graph

Daily Weather History Graph

Search for Another Location

Airport or City:

Trip Planner

Search our weather history database for the weather conditions in past years. The results will help you decide how hot, cold, wet, or windy it might be!

Date:

Astronomy

Mar. 23, 2014 Rise Set
Actual Time 8:41 AM AKDT 9:18 PM AKDT
Civil Twilight 7:52 AM AKDT 10:07 PM AKDT
Nautical Twilight 6:51 AM AKDT 11:08 PM AKDT
Astronomical Twilight 5:40 AM AKDT 12:20 AM AKDT
Moon 5:38 AM AKDT (3/23) 11:41 AM AKDT (3/23)
Length of Visible Light 14h 14m
Length of Day
12h 37m
Waning Gibbous, 53% of the Moon is Illuminated
Mar 23
Waning Gibbous
Mar 23
Last Quarter
Mar 30
New
Apr 7
First Quarter
Apr 14
Full

Hourly Weather History & Observations

Time (AKDT) Temp. Windchill Dew Point Humidity Pressure Visibility Wind Dir Wind Speed Gust Speed Precip Events Conditions
12:16 AM 28.4 °F 19.7 °F 1.4 °F 31% 30.52 in 10.0 mi East 9.2 mph - N/A   Clear
12:36 AM 30.2 °F 21.9 °F 3.2 °F 32% 30.52 in 10.0 mi ENE 9.2 mph 16.1 mph N/A   Clear
12:56 AM 33.8 °F 24.3 °F -0.4 °F 23% 30.52 in 9.0 mi East 13.8 mph 31.1 mph N/A   Clear
1:16 AM 33.8 °F 24.8 °F -2.2 °F 22% 30.52 in 10.0 mi ESE 12.7 mph 25.3 mph N/A   Clear
1:36 AM 32.0 °F 21.6 °F -0.4 °F 25% 30.52 in 10.0 mi ENE 15.0 mph 20.7 mph N/A   Clear
1:56 AM 33.8 °F 24.3 °F -0.4 °F 23% 30.52 in 10.0 mi ESE 13.8 mph 23.0 mph N/A   Clear
2:16 AM 33.8 °F 25.8 °F -0.4 °F 23% 30.52 in 10.0 mi ESE 10.4 mph 24.2 mph N/A   Clear
2:36 AM 33.8 °F 25.8 °F -0.4 °F 23% 30.52 in 10.0 mi ESE 10.4 mph 18.4 mph N/A   Clear
2:56 AM 30.2 °F 19.8 °F -0.4 °F 27% 30.52 in 10.0 mi ESE 13.8 mph 19.6 mph N/A   Clear
3:16 AM 30.2 °F 18.1 °F -0.4 °F 27% 30.51 in 10.0 mi East 18.4 mph 21.9 mph N/A   Clear
3:36 AM 30.2 °F 19.3 °F -0.4 °F 27% 30.51 in 10.0 mi ESE 15.0 mph - N/A   Clear
3:56 AM 28.4 °F 18.5 °F 1.4 °F 31% 30.51 in 10.0 mi ESE 11.5 mph - N/A   Clear
4:16 AM 28.4 °F 21.2 °F 1.4 °F 31% 30.51 in 10.0 mi SE 6.9 mph - N/A   Clear
4:36 AM 28.4 °F 19.1 °F 1.4 °F 31% 30.50 in 10.0 mi East 10.4 mph - N/A   Clear
4:56 AM 28.4 °F - 1.4 °F 31% 30.50 in 10.0 mi Calm Calm - N/A   Clear
5:16 AM 28.4 °F 21.2 °F -0.4 °F 29% 30.50 in 10.0 mi SSE 6.9 mph - N/A   Clear
5:36 AM 28.4 °F 18.5 °F -0.4 °F 29% 30.49 in 10.0 mi ESE 11.5 mph - N/A   Clear
5:56 AM 26.6 °F 20.0 °F -2.2 °F 29% 30.49 in 10.0 mi North 5.8 mph - N/A   Clear
6:16 AM 26.6 °F - -0.4 °F 31% 30.49 in 10.0 mi Calm Calm - N/A   Clear
6:36 AM 26.6 °F 18.2 °F -0.4 °F 31% 30.48 in 10.0 mi ENE 8.1 mph - N/A   Clear
6:56 AM 28.4 °F 23.3 °F -2.2 °F 27% 30.48 in 10.0 mi East 4.6 mph - N/A   Clear
7:16 AM 28.4 °F - -0.4 °F 29% 30.49 in 10.0 mi Calm Calm - N/A   Clear
7:36 AM 24.8 °F 16.9 °F -2.2 °F 31% 30.48 in 10.0 mi East 6.9 mph - N/A   Clear
7:56 AM 21.2 °F 14.9 °F -4.0 °F 33% 30.48 in 10.0 mi SSW 4.6 mph - N/A   Clear
8:16 AM 21.2 °F 12.6 °F 1.4 °F 42% 30.47 in 10.0 mi ESE 6.9 mph - N/A   Clear
8:36 AM 21.2 °F - -5.8 °F 30% 30.47 in 10.0 mi Calm Calm - N/A   Clear
8:56 AM 24.8 °F 20.5 °F 3.2 °F 40% 30.47 in 10.0 mi West 3.5 mph - N/A   Clear
9:16 AM 26.6 °F 19.1 °F 3.2 °F 37% 30.46 in 10.0 mi East 6.9 mph - N/A   Clear
9:36 AM 24.8 °F 19.1 °F -2.2 °F 31% 30.46 in 10.0 mi East 4.6 mph - N/A   Clear
9:56 AM 24.8 °F - 1.4 °F 36% 30.46 in 10.0 mi Calm Calm - N/A   Clear
10:16 AM 23.0 °F 14.7 °F 1.4 °F 39% 30.46 in 10.0 mi North 6.9 mph - N/A   Clear
10:36 AM 23.0 °F 14.7 °F 3.2 °F 43% 30.46 in 10.0 mi NNE 6.9 mph - N/A   Clear
10:56 AM 24.8 °F 16.1 °F 3.2 °F 40% 30.46 in 10.0 mi NNE 8.1 mph - N/A   Clear
11:16 AM 26.6 °F 21.2 °F 5.0 °F 40% 30.46 in 10.0 mi NE 4.6 mph - N/A   Clear
11:36 AM 26.6 °F 21.2 °F 3.2 °F 37% 30.45 in 10.0 mi NNE 4.6 mph - N/A   Clear
11:56 AM 28.4 °F - 3.2 °F 34% 30.45 in 10.0 mi Calm Calm - N/A   Clear
12:16 PM 28.4 °F 24.6 °F 6.8 °F 40% 30.45 in 10.0 mi East 3.5 mph - N/A   Clear
12:36 PM 28.4 °F 24.6 °F 3.2 °F 34% 30.45 in 10.0 mi East 3.5 mph - N/A   Clear
12:56 PM 28.4 °F 24.6 °F 3.2 °F 34% 30.44 in 10.0 mi SE 3.5 mph - N/A   Clear
1:16 PM 28.4 °F 23.3 °F 3.2 °F 34% 30.44 in 10.0 mi South 4.6 mph - N/A   Clear
1:36 PM 26.6 °F - 5.0 °F 40% 30.44 in 10.0 mi Calm Calm - N/A   Clear
1:56 PM 26.6 °F - 6.8 °F 43% 30.43 in 10.0 mi Calm Calm - N/A   Clear
2:16 PM 30.2 °F 25.4 °F 3.2 °F 32% 30.43 in 10.0 mi SE 4.6 mph - N/A   Clear
2:36 PM 32.0 °F 28.7 °F 8.6 °F 38% 30.43 in 10.0 mi WSW 3.5 mph - N/A   Clear
2:56 PM 33.8 °F 29.6 °F 6.8 °F 32% 30.42 in 10.0 mi NE 4.6 mph - N/A   Clear
3:16 PM 32.0 °F 23.6 °F 10.4 °F 41% 30.42 in 10.0 mi ESE 10.4 mph - N/A   Clear
3:36 PM 33.8 °F 30.8 °F 3.2 °F 28% 30.41 in 10.0 mi East 3.5 mph - N/A   Clear
3:56 PM 33.8 °F 28.6 °F 8.6 °F 35% 30.41 in 10.0 mi East 5.8 mph - N/A   Clear
4:16 PM 33.8 °F 28.6 °F 6.8 °F 32% 30.41 in 10.0 mi SSE 5.8 mph - N/A   Clear
4:36 PM 35.6 °F 30.7 °F 3.2 °F 26% 30.41 in 10.0 mi ESE 5.8 mph - N/A   Clear
4:56 PM 33.8 °F - 6.8 °F 32% 30.40 in 10.0 mi Calm Calm - N/A   Clear
5:16 PM 35.6 °F 29.2 °F 3.2 °F 26% 30.40 in 10.0 mi East 8.1 mph - N/A   Clear
5:36 PM 35.6 °F 30.7 °F 6.8 °F 30% 30.40 in 10.0 mi ESE 5.8 mph - N/A   Clear
5:56 PM 35.6 °F 30.7 °F 6.8 °F 30% 30.39 in 10.0 mi ESE 5.8 mph - N/A   Clear
6:16 PM 35.6 °F 29.2 °F 6.8 °F 30% 30.39 in 10.0 mi East 8.1 mph - N/A   Clear
6:36 PM 35.6 °F 27.5 °F 3.2 °F 26% 30.38 in 10.0 mi East 11.5 mph - N/A   Clear
6:56 PM 35.6 °F 26.6 °F 3.2 °F 26% 30.37 in 10.0 mi NE 13.8 mph 20.7 mph N/A   Clear
7:16 PM 35.6 °F 28.0 °F 3.2 °F 26% 30.38 in 10.0 mi East 10.4 mph - N/A   Clear
7:36 PM 35.6 °F 28.6 °F 3.2 °F 26% 30.37 in 10.0 mi ESE 9.2 mph - N/A   Clear
7:56 PM 35.6 °F 26.6 °F 8.6 °F 33% 30.36 in 10.0 mi ESE 13.8 mph - N/A   Clear
8:16 PM 37.4 °F 31.4 °F 3.2 °F 24% 30.36 in 10.0 mi ESE 8.1 mph 17.3 mph N/A   Clear
8:36 PM 37.4 °F 29.8 °F 1.4 °F 22% 30.36 in 10.0 mi SSE 11.5 mph 17.3 mph N/A   Clear
8:56 PM 37.4 °F 30.3 °F 3.2 °F 24% 30.36 in 10.0 mi ESE 10.4 mph 17.3 mph N/A   Clear
9:16 PM 35.6 °F 26.2 °F 1.4 °F 24% 30.35 in 10.0 mi East 15.0 mph 28.8 mph N/A   Clear
9:36 PM 35.6 °F 27.1 °F 3.2 °F 26% 30.35 in 10.0 mi East 12.7 mph - N/A   Clear
9:56 PM 35.6 °F 25.9 °F 5.0 °F 28% 30.35 in 10.0 mi East 16.1 mph - N/A   Clear
10:16 PM 33.8 °F 27.0 °F 3.2 °F 28% 30.35 in 10.0 mi East 8.1 mph - N/A   Clear
10:36 PM 33.8 °F 28.6 °F 5.0 °F 30% 30.35 in 10.0 mi ENE 5.8 mph - N/A   Clear
10:56 PM 32.0 °F 24.2 °F 5.0 °F 32% 30.35 in 10.0 mi East 9.2 mph - N/A   Clear
11:16 PM 30.2 °F 21.9 °F 6.8 °F 37% 30.35 in 10.0 mi East 9.2 mph - N/A   Clear
11:36 PM 30.2 °F 20.8 °F 6.8 °F 37% 30.36 in 10.0 mi East 11.5 mph 18.4 mph N/A   Clear
11:56 PM 30.2 °F 20.2 °F 8.6 °F 40% 30.36 in 10.0 mi East 12.7 mph 17.3 mph N/A   Clear